Regional Weather Roundup
Issued by NWS

Home | Current Version | Previous Version | Text Only | Print | Product List | Glossary On
Versions: 1 2 3 4 5 6 7 8 9 10 11 12 13 14 15 16 17 18 19 20 21 22 23 24 25 26 27
000
ASUS42 KTBW 011316
RWRFL
FLORIDA REGIONAL WEATHER ROUNDUP
NATIONAL WEATHER SERVICE TAMPA BAY RUSKIN FL
900 AM EDT SAT OCT 01 2016

NOTE: "FAIR" INDICATES FEW OR NO CLOUDS BELOW 12,000 FEET WITH NO
SIGNIFICANT WEATHER AND/OR OBSTRUCTIONS TO VISIBILITY.

FLZ001>010-012>015-112-114-115-011400-
PANHANDLE FLORIDA

CITY           SKY/WX    TMP DP  RH WIND       PRES   REMARKS
PENSACOLA      SUNNY     66  57  72 N3        30.09R
PENSACOLA NAS  SUNNY     65  58  78 CALM      30.08R
MILTON NAS     SUNNY     62  57  83 N3        30.09R
CRESTVIEW      SUNNY     57  53  86 E3        30.11R
DUKE FIELD     FAIR      59  56  91 VRB1      30.09R
VALPARAISO     MOSUNNY   62  54  75 NW3       30.09R
MARY ESTHER    SUNNY     61  58  89 N6        30.08R
TRI COUNTY     FAIR      59  56  89 CALM      30.12R
PANAMA CITY    SUNNY     63  57  82 N6        30.08R
TYNDALL AFB    SUNNY     66  56  69 E3        30.09R
APALACHICOLA   SUNNY     65  58  78 NE8       30.07S

STATION/POSITION SKY/WX   TEMP    WIND        PRES    WAVE   SWELL
                          AIR SEA DIR/SP/G            HT/PER HT/PER
                          (F)     (DEG/KT/KT) (MB)    (FT/S) (FT/S)
30.1N   87.6W              77 83   10/  6/  8 1018.7R   1
29.2N   88.2W              77 84   70/  4/  8 1017.4R
28.8N   86.0W              78 84              1017.8R   1
PANAMA CITY BEAC           63 83   30/  4/  6 1018.7R
TOWER C                    75      30/ 12/ 14 1018.3R
28.5N   84.5W              80 84   10/  8/ 10 1017.5R   1/ 9

$$
FLZ011-016>038-118-127-128-134-139-239-011400-
NORTH FLORIDA

CITY           SKY/WX    TMP DP  RH WIND       PRES   REMARKS
MARIANNA       SUNNY     61  57  87 CALM      30.09R
TALLAHASSEE    SUNNY     63  56  78 CALM      30.08S
PERRY          SUNNY     62  56  82 CALM      30.09R
CROSS CITY     SUNNY     66  59  77 N6        30.07S
LAKE CITY      FAIR      66  57  72 N3        30.08R
GAINESVILLE    PTSUNNY   70  57  63 CALM      30.07R
WILLISTON      MOSUNNY   72  64  78 CALM      30.07R
PALATKA        CLOUDY    73  59  60 N3        30.06S
MAYPORT NAS    CLOUDY    74  61  63 N5        30.05R
JACKSONVILLE   PTSUNNY   73  58  59 NW5       30.06R
JAX NAS        PTSUNNY   76  56  49 NW8       30.06R
FERNANDINA BEA FAIR      77  61  57 N5        30.04R
ST AUGUSTINE   CLOUDY    73  60  63 N3        30.06R
PALM COAST     SUNNY    N/A N/A N/A CALM      30.06R

STATION/POSITION SKY/WX   TEMP    WIND        PRES    WAVE   SWELL
                          AIR SEA DIR/SP/G            HT/PER HT/PER
                          (F)     (DEG/KT/KT) (MB)    (FT/S) (FT/S)
SHELL POINT                62     360/  8/ 10 1017.2
KEATON BEACH               62      40/  6/  8 1017.7R
CEDAR KEY                  73      30/  5/  8 1018.3R
FERNANDINA                 73 83  310/  3/  7 1017.2R
30.7N   81.3W                 82                N/A     2/ 3
MAYPORT                    73 83  320/  8/ 11 1017.5R
31.4N   80.9W              79 82   30/ 12/ 16 1017.1R   2/ 4   2/10
ST AUGUSTINE               74 82  340/  5/  6 1018.4R

$$
FLZ040-043>046-052-053-057-058-063-144-011400-
INTERIOR CENTRAL FLORIDA

CITY           SKY/WX    TMP DP  RH WIND       PRES   REMARKS
OCALA          MOSUNNY   72  61  68 CALM      30.07R
THE VILLAGES     N/A     75  72  88 MISG      29.96S
LEESBURG       SUNNY     76  65  68 NE3       30.06R
SANFORD        CLOUDY    75  73  93 CALM      30.05R
ORLANDO EXEC   SUNNY     75  72  90 CALM      30.06R
ORLANDO INTL   MOSUNNY   76  73  91 SE3       30.06R
KISSIMMEE      MOSUNNY   77  74  90 CALM      30.07R
WINTER HAVEN   MOSUNNY   78  71  79 CALM      30.08R
LAKELAND       PTSUNNY   73  72  94 CALM      30.06R
BARTOW         MOSUNNY   75  75 100 VRB3      30.07R
OKEECHOBEE     SUNNY     72  70  94 CALM      30.05S

$$
FLZ041-047-054-059-064-141-147-011400-
EAST CENTRAL FLORIDA

CITY           SKY/WX    TMP DP  RH WIND       PRES   REMARKS
ORMOND BEACH   MOSUNNY   73  72  94 CALM      30.06R
DAYTONA BEACH  FOG       73  73 100 VRB3      30.06R VSB 1/2
DELAND         SUNNY     75  72  88 CALM      30.05R
NEW SMYRNA BEA PTSUNNY   73  72  94 W6        30.06R
TITUSVILLE     MOSUNNY   75  73  94 S5        30.07
CAPE CANAVERAL MOSUNNY   78  74  87 NW5       30.04R
PATRICK AFB    MOSUNNY   82  73  75 CALM      30.05R
MELBOURNE      MOSUNNY   80  74  81 CALM      30.05R
VERO BEACH     MOSUNNY   76  74  93 CALM      30.06R
FT PIERCE      MOSUNNY   74  73  97 CALM      30.06R
STUART         MOSUNNY   77  73  88 E5        30.07R

STATION/POSITION SKY/WX   TEMP    WIND        PRES    WAVE   SWELL
                          AIR SEA DIR/SP/G            HT/PER HT/PER
                          (F)     (DEG/KT/KT) (MB)    (FT/S) (FT/S)
28.5N   80.2W              82 84  160/  4/  4 1017.4R
TRIDENT PIER               77 85   CALM  /  1 1017.4R
28.4N   80.5W                 85                N/A     1/ 9
27.5N   80.2W                 84                N/A     2/13   2/13

$$
FLZ050-056-061-142-242-148-248-149-249-151-251-155-255-
160-260-011400-
WEST CENTRAL FLORIDA

CITY           SKY/WX    TMP DP  RH WIND       PRES   REMARKS
CRYSTAL RIVER  FAIR      73  61  64 N3        30.06S
INVERNESS      FAIR      73  64  73 N5        30.06S
BROOKSVILLE    SUNNY     74  64  71 NE7       30.06R
CLEARWATER AIR FAIR      73  61  64 E5        30.04R
ST PETE CLEARW PTSUNNY   78  64  61 NE7       30.05R
TAMPA INTL     PTSUNNY   77  61  57 NE5       30.06R
TAMPA EXEC     SUNNY     75  68  78 CALM      30.06R
PLANT CITY     PTSUNNY   75  72  88 E3        30.08R
MACDILL AFB    MOSUNNY   77  72  83 E9        30.05R
PETER O KNIGHT MOSUNNY   79  66  65 NE10      30.05R
ST PETERSBURG  PTSUNNY   79  65  62 E15       30.04R
SARASOTA       CLOUDY    77  72  84 E8        30.02S
VENICE         FAIR      77  75  94 NE5       30.03R

STATION/POSITION SKY/WX   TEMP    WIND        PRES    WAVE   SWELL
                          AIR SEA DIR/SP/G            HT/PER HT/PER
                          (F)     (DEG/KT/KT) (MB)    (FT/S) (FT/S)
27.3N   84.2W                 85                N/A     2/ 4
CLEARWATER BEACH           77 85   60/  5/  9 1017.3R
MIDDLE TAMPA BAY                   50/ 10/ 12 1017.2R
VENICE                     76 87   70/  5/  6 1016.1R

$$
FLZ066-069-070-075>078-162-262-165-265-011400-
SOUTHWEST FLORIDA AND KEYS

CITY           SKY/WX    TMP DP  RH WIND       PRES   REMARKS
PUNTA GORDA    MOSUNNY   78  73  84 SE9       30.05R
FT MYERS       SUNNY     79  74  84 VRB5      30.03R
SOUTHWEST INTL MOSUNNY   79  73  82 E5        30.04R
NAPLES         SUNNY     78  73  84 E6        30.03R
MARATHON       CLOUDY    82  75  79 NE13      29.99R
KEY WEST NAS   PTSUNNY   82  74  76 NE8       30.00R
KEY WEST INTL  CLOUDY    83  77  82 NE8       30.00R

STATION/POSITION SKY/WX   TEMP    WIND        PRES    WAVE   SWELL
                          AIR SEA DIR/SP/G            HT/PER HT/PER
                          (F)     (DEG/KT/KT) (MB)    (FT/S) (FT/S)
NAPLES                        87              1016.5R
26.0N   85.6W              83 85  150/  4/  4 1016.2R   2/ 6   2/ 6
DRY TORTUGAS               85      80/  9/ 10 1016.5R
SAND KEY                   81      60/ 12/ 14 1016.3R
LONG KEY                   81 85   30/ 14/ 16 1016.1R

$$
FLZ067-068-071>074-168-172>174-011400-
SOUTHEAST FLORIDA

CITY           SKY/WX    TMP DP  RH WIND       PRES   REMARKS
W PALM BEACH   LGT RAIN  79  74  84 E9        30.04F
FT LAUDER-EXEC LGT RAIN  74  69  85 N5        30.01F
FT LAUDERDALE  CLOUDY    76  69  79 NE7       30.00S
POMPANO BEACH  LGT RAIN  77  73  87 NE9       30.01F
PEMBROKE PINES MOSUNNY   75  71  87 NE5       30.03S
OPA LOCKA      CLOUDY    77  73  87 NE5       30.02S
MIAMI          CLOUDY    78  71  79 VRB3      30.01S
WEST KENDALL   MOSUNNY   78  74  87 NE6       30.01R
HOMESTEAD      CLOUDY    81  72  75 NE14      30.00R

STATION/POSITION SKY/WX   TEMP    WIND        PRES    WAVE   SWELL
                          AIR SEA DIR/SP/G            HT/PER HT/PER
                          (F)     (DEG/KT/KT) (MB)    (FT/S) (FT/S)
PORT EVERGLADES            78      70/  9/ 14 1016.6R
VIRGINIA KEY               78 88   50/ 10/ 15 1016.4R
LAKE WORTH                        100/ 11/ 14   N/A
FOWEY ROCKS                80 84   50/ 21/ 22 1016.5R
SETTLEMENT POINT           77     300/  8/  9 1018.7F

$$





USA.gov is the U.S. government's official web portal to all federal, state and local government web resources and services.